W5TTY Weather Reports


Display with metric or nautical units.
time (UTC)temp
F
wind
direction
speed
MPH
gust
MPH
rain 1hr
in
rain 24hr
in
rain mn
in
humidity
%
barometer
mb
20260509221845 87 303 3.0 5.0 0.00 0.00 0.00 82 1007.3
20260509221327 87 298 3.0 4.0 0.00 0.00 0.00 82 1007.4
20260509220833 87 276 2.0 3.0 0.00 0.00 0.00 82 1007.5
20260509220338 87 5 2.0 3.0 0.00 0.00 0.00 82 1007.4
20260509215829 87 42 1.0 3.0 0.00 0.00 0.00 83 1007.5
20260509215329 86 47 0.0 3.0 0.00 0.00 0.00 83 1007.5
20260509214832 87 48 1.0 4.0 0.00 0.00 0.00 83 1007.5
20260509214336 87 47 1.0 8.0 0.00 0.00 0.00 83 1007.6
20260509213820 86 269 4.0 8.0 0.00 0.00 0.00 84 1007.7
20260509213323 86 323 3.0 6.0 0.00 0.00 0.00 84 1007.8
20260509212826 86 345 2.0 8.0 0.00 0.00 0.00 84 1007.8
20260509212337 86 300 2.0 8.0 0.00 0.00 0.00 84 1007.9
20260509211843 86 274 4.0 10.0 0.00 0.00 0.00 85 1007.8
20260509211327 86 270 3.0 10.0 0.00 0.00 0.00 85 1007.9
20260509210825 85 297 3.0 5.0 0.00 0.00 0.00 85 1007.9
20260509210332 85 272 3.0 5.0 0.00 0.00 0.00 86 1008.0
20260509205905 85 321 2.0 4.0 0.00 0.00 0.00 85 1008.0
20260509205324 85 304 2.0 4.0 0.00 0.00 0.00 86 1008.1
20260509204827 85 289 2.0 4.0 0.00 0.00 0.00 86 1008.2
20260509204330 85 290 2.0 5.0 0.00 0.00 0.00 86 1008.3
20260509203835 85 300 2.0 5.0 0.00 0.00 0.00 86 1008.5
20260509203320 85 242 2.0 6.0 0.00 0.00 0.00 87 1008.6
20260509202826 85 241 3.0 6.0 0.00 0.00 0.00 87 1008.7
20260509202326 85 286 2.0 7.0 0.00 0.00 0.00 87 1008.8
20260509201834 85 283 3.0 7.0 0.00 0.00 0.00 87 1008.8
20260509201320 85 311 2.0 7.0 0.00 0.00 0.00 87 1008.9
20260509200823 85 308 3.0 7.0 0.00 0.00 0.00 88 1008.9
20260509200336 86 284 2.0 11.0 0.00 0.00 0.00 88 1008.8
20260509195843 86 247 3.0 11.0 0.00 0.00 0.00 88 1008.8
20260509195344 86 313 3.0 8.0 0.00 0.00 0.00 89 1008.9
20260509194825 85 242 3.0 8.0 0.00 0.00 0.00 89 1008.9
20260509194331 85 220 3.0 10.0 0.00 0.00 0.00 89 1008.9
20260509193835 85 246 3.0 9.0 0.00 0.00 0.00 89 1008.9
20260509193346 85 324 4.0 9.0 0.00 0.00 0.00 90 1008.9
20260509192820 85 269 4.0 9.0 0.00 0.00 0.00 90 1009.0
20260509192329 84 227 4.0 9.0 0.00 0.00 0.00 90 1009.1
20260509191854 84 267 4.0 8.0 0.00 0.00 0.00 90 1009.1
20260509191320 84 249 5.0 8.0 0.00 0.00 0.00 90 1009.3
20260509190822 84 217 1.0 6.0 0.00 0.00 0.00 91 1009.3
20260509190333 83 318 2.0 6.0 0.00 0.00 0.00 91 1009.5
20260509185831 83 312 2.0 7.0 0.00 0.00 0.00 91 1009.6
20260509185333 82 284 1.0 4.0 0.00 0.00 0.00 91 1009.6
20260509184819 82 286 0.0 5.0 0.00 0.00 0.00 91 1009.7
20260509184326 82 286 4.0 5.0 0.00 0.00 0.00 91 1009.8
20260509183825 82 307 1.0 5.0 0.00 0.00 0.00 91 1009.7
20260509183331 82 310 3.0 5.0 0.00 0.00 0.00 91 1009.8
20260509182820 82 246 4.0 5.0 0.00 0.00 0.00 91 1009.8
20260509182323 82 240 1.0 5.0 0.00 0.00 0.00 91 1009.9
20260509181836 82 244 3.0 9.0 0.00 0.00 0.00 91 1009.9
20260509181342 82 198 5.0 9.0 0.00 0.00 0.00 91 1010.0
20260509180824 82 240 1.0 8.0 0.00 0.00 0.00 92 1010.0
20260509180328 82 244 5.0 8.0 0.00 0.00 0.00 92 1010.2
20260509175834 82 197 2.0 6.0 0.00 0.00 0.00 91 1010.2
20260509175319 82 182 2.0 6.0 0.00 0.00 0.00 92 1010.3
20260509174826 82 271 3.0 6.0 0.00 0.00 0.00 92 1010.4
20260509174328 82 231 2.0 8.0 0.00 0.00 0.00 92 1010.3
20260509173833 81 202 3.0 8.0 0.00 0.00 0.00 92 1010.4
20260509173319 81 151 1.0 8.0 0.00 0.00 0.00 92 1010.4
20260509172821 81 242 4.0 8.0 0.00 0.00 0.00 92 1010.4
20260509172333 81 217 4.0 8.0 0.00 0.00 0.00 92 1010.4
20260509171854 81 158 3.0 7.0 0.00 0.00 0.00 92 1010.4
20260509171318 80 236 5.0 7.0 0.00 0.00 0.00 92 1010.4
20260509170845 80 263 1.0 7.0 0.00 0.00 0.00 92 1010.4
20260509170340 79 267 3.0 7.0 0.00 0.00 0.00 92 1010.5
20260509165845 79 222 4.0 7.0 0.00 0.00 0.00 92 1010.5
20260509165325 79 217 3.0 9.0 0.00 0.00 0.00 92 1010.7
20260509164826 78 242 4.0 9.0 0.00 0.00 0.00 92 1010.6
20260509164328 78 241 3.0 5.0 0.00 0.00 0.00 92 1010.6
20260509163842 78 232 2.0 6.0 0.00 0.00 0.00 92 1010.7
20260509163317 77 206 3.0 6.0 0.00 0.00 0.00 92 1010.7
20260509162850 76 234 3.0 5.0 0.00 0.00 0.00 92 1010.8
20260509162353 76 269 2.0 3.0 0.00 0.00 0.00 92 1011.0
20260509161903 76 269 2.0 4.0 0.00 0.00 0.00 92 1010.9
20260509161325 76 288 1.0 5.0 0.00 0.00 0.00 92 1011.0
20260509160828 76 311 2.0 4.0 0.00 0.00 0.00 92 1011.0
20260509160334 75 190 0.0 2.0 0.00 0.00 0.00 92 1010.9
20260509155821 75 188 0.0 3.0 0.00 0.00 0.00 92 1010.9
20260509155324 75 188 2.0 3.0 0.00 0.00 0.00 92 1010.9
20260509154855 75 186 0.0 1.0 0.00 0.00 0.00 92 1011.0
20260509154320 75 186 0.0 3.0 0.00 0.00 0.00 91 1011.0
20260509153827 75 186 1.0 3.0 0.00 0.00 0.00 91 1011.2
20260509153332 75 186 1.0 3.0 0.00 0.00 0.00 91 1011.3
20260509152838 75 186 1.0 3.0 0.00 0.00 0.00 91 1011.2
20260509152321 75 180 1.0 3.0 0.00 0.00 0.00 91 1011.1
20260509151825 75 173 1.0 4.0 0.00 0.00 0.00 91 1011.0
20260509151328 75 171 2.0 5.0 0.00 0.00 0.00 91 1011.0
20260509150840 74 162 2.0 6.0 0.00 0.00 0.00 91 1010.9
20260509150318 74 186 2.0 6.0 0.00 0.00 0.00 91 1010.9
20260509145826 74 222 0.0 4.0 0.00 0.00 0.00 91 1010.8
20260509145329 74 223 1.0 5.0 0.00 0.00 0.00 91 1010.7
20260509144835 74 223 2.0 5.0 0.00 0.00 0.00 91 1010.6
20260509144335 74 182 1.0 7.0 0.00 0.00 0.00 91 1010.5
20260509143821 74 200 3.0 7.0 0.00 0.00 0.00 91 1010.2
20260509143325 74 165 2.0 7.0 0.00 0.00 0.00 91 1010.0
20260509142829 74 171 3.0 7.0 0.00 0.00 0.00 91 1009.9
20260509142343 74 136 3.0 7.0 0.00 0.00 0.00 91 1010.0
20260509141849 74 153 2.0 5.0 0.00 0.00 0.00 91 1010.0
20260509141351 74 159 3.0 5.0 0.00 0.00 0.00 91 1009.9
20260509140837 74 224 0.0 3.0 0.00 0.00 0.00 91 1010.1
20260509140351 74 224 0.0 8.0 0.00 0.00 0.00 91 1010.1
20260509135835 74 224 2.0 8.0 0.00 0.00 0.00 91 1010.0
20260509135320 74 177 2.0 6.0 0.00 0.00 0.00 91 1009.9
20260509134822 74 227 1.0 7.0 0.00 0.00 0.00 91 1010.1
20260509134327 74 195 2.0 8.0 0.00 0.00 0.00 91 1010.0
20260509133835 73 216 4.0 7.0 0.00 0.00 0.00 91 1009.9
20260509133341 73 215 3.0 6.0 0.00 0.00 0.00 91 1009.8
20260509034817 73 174 2.0 4.0 0.00 0.38 0.38 87 1009.5
20260509034329 73 127 1.0 3.0 0.00 0.38 0.38 87 1009.6
20260509033835 73 127 2.0 6.0 0.00 0.38 0.38 87 1009.5
20260509033342 73 111 2.0 8.0 0.00 0.38 0.38 87 1009.1
20260509032828 74 137 3.0 8.0 0.00 0.38 0.38 87 1009.1
20260509032349 74 115 3.0 7.0 0.00 0.38 0.38 87 1009.1
20260509031842 74 97 3.0 7.0 0.00 0.38 0.38 87 1009.0
20260509031319 74 109 4.0 9.0 0.00 0.38 0.38 87 1009.0
20260509030831 74 135 4.0 10.0 0.00 0.38 0.38 87 1009.0
20260509030337 74 141 4.0 10.0 0.00 0.38 0.38 87 1008.9
20260509025823 74 126 3.0 9.0 0.00 0.38 0.38 87 1008.9
20260509025327 74 133 4.0 9.0 0.00 0.38 0.38 87 1008.8
20260509024829 74 144 4.0 9.0 0.00 0.38 0.38 87 1008.7
20260509024335 74 131 4.0 8.0 0.00 0.38 0.38 87 1008.7
20260509023822 74 161 2.0 6.0 0.00 0.38 0.38 87 1008.8
20260509023322 74 153 2.0 5.0 0.00 0.38 0.38 87 1008.8
20260509022828 74 151 2.0 4.0 0.00 0.38 0.38 87 1009.0
20260509022327 74 144 1.0 3.0 0.00 0.38 0.38 87 1008.9
20260509021843 75 144 1.0 3.0 0.00 0.38 0.38 87 1008.9
20260509021346 75 144 1.0 3.0 0.00 0.38 0.38 86 1008.8
20260509020828 75 145 2.0 5.0 0.00 0.38 0.38 86 1008.7
20260509020329 75 145 2.0 8.0 0.00 0.38 0.38 87 1008.6
20260509015832 75 163 2.0 8.0 0.00 0.38 0.38 87 1008.7
20260509015337 75 140 3.0 8.0 0.00 0.38 0.38 87 1008.7
20260509014849 75 139 3.0 8.0 0.00 0.38 0.38 87 1008.6
20260509014334 75 153 3.0 8.0 0.00 0.38 0.38 86 1008.6
20260509013820 75 142 4.0 8.0 0.00 0.38 0.38 86 1008.6
20260509013327 75 128 4.0 8.0 0.00 0.38 0.38 86 1008.6
20260509012829 75 130 3.0 7.0 0.00 0.38 0.38 86 1008.7
20260509012355 76 145 3.0 7.0 0.00 0.38 0.38 87 1008.7
20260509011839 76 136 3.0 8.0 0.00 0.38 0.38 87 1008.6
20260509011345 76 105 3.0 8.0 0.00 0.38 0.38 87 1008.6
20260509010826 76 127 2.0 7.0 0.00 0.38 0.38 87 1008.5
20260509010334 76 126 3.0 7.0 0.00 0.38 0.38 87 1008.4
20260509005819 76 121 3.0 9.0 0.00 0.38 0.38 86 1008.3
20260509005319 76 113 5.0 9.0 0.00 0.38 0.38 86 1008.3
20260509004830 76 134 5.0 8.0 0.00 0.38 0.38 86 1008.5
20260509004334 76 116 4.0 8.0 0.00 0.38 0.38 87 1008.5
20260509003821 76 101 4.0 7.0 0.00 0.38 0.38 87 1008.6
20260509003327 77 97 2.0 6.0 0.00 0.38 0.38 87 1008.6
20260509002828 77 90 2.0 7.0 0.00 0.38 0.38 87 1008.5
20260509002330 77 99 3.0 7.0 0.00 0.38 0.38 87 1008.6
20260509001837 77 88 3.0 9.0 0.00 0.38 0.38 87 1008.5
20260509001321 77 111 4.0 9.0 0.00 0.38 0.38 87 1008.6
20260509000835 77 132 4.0 9.0 0.00 0.38 0.38 87 1008.6
20260509000340 77 111 5.0 8.0 0.00 0.38 0.38 87 1008.6
20260508235845 77 132 4.0 8.0 0.00 0.38 0.38 87 1008.6
20260508235326 77 112 3.0 10.0 0.00 0.38 0.38 87 1008.5
20260508234832 77 86 2.0 10.0 0.00 0.38 0.38 87 1008.6
20260508234358 77 127 3.0 9.0 0.00 0.38 0.38 87 1008.6
20260508233849 77 111 5.0 9.0 0.00 0.38 0.38 87 1008.7
20260508233336 78 70 4.0 9.0 0.00 0.38 0.38 87 1008.6
20260508232843 78 118 4.0 9.0 0.00 0.38 0.38 87 1008.5
20260508232349 78 49 5.0 10.0 0.00 0.38 0.38 87 1008.5
20260508231829 78 63 4.0 10.0 0.00 0.38 0.38 87 1008.5
20260508231335 78 68 5.0 9.0 0.00 0.38 0.38 87 1008.5
20260508230819 78 79 5.0 8.0 0.00 0.38 0.38 87 1008.6
20260508230350 78 94 3.0 11.0 0.00 0.38 0.38 87 1008.7
20260508225849 78 88 7.0 11.0 0.00 0.38 0.38 87 1008.6
20260508225338 78 86 7.0 11.0 0.00 0.38 0.38 88 1008.6
20260508224844 78 78 3.0 6.0 0.00 0.38 0.38 87 1008.7
20260508224325 78 73 4.0 7.0 0.00 0.38 0.38 87 1008.8
20260508223829 78 51 3.0 7.0 0.00 0.38 0.38 88 1008.8
20260508223336 78 109 2.0 7.0 0.00 0.38 0.38 88 1008.9
20260508222822 78 99 3.0 6.0 0.00 0.38 0.38 88 1008.8
20260508222355 78 93 3.0 6.0 0.00 0.38 0.38 88 1008.7